| time (UTC) | temp C | wind direction | speed KPH | gust KPH | rain 1hr cm | rain 24hr cm | rain mn cm | humidity % | barometer mb |
| 20260506015513 | 23 | 106 | 1.6 | 12.9 | 0.00 | 0.00 | 0.00 | 42 | 1010.6 |
| 20260506015011 | 23 | 68 | 3.2 | 11.3 | 0.00 | 0.00 | 0.00 | 42 | 1010.6 |
| 20260506014528 | 23 | 81 | 0.0 | 11.3 | 0.00 | 0.00 | 0.00 | 42 | 1010.5 |
| 20260506014009 | 23 | 89 | 1.6 | 14.5 | 0.00 | 0.00 | 0.00 | 41 | 1010.4 |
| 20260506013509 | 23 | 0 | 3.2 | 14.5 | 0.00 | 0.00 | 0.00 | 41 | 1010.4 |
| 20260506013032 | 23 | 233 | 1.6 | 11.3 | 0.00 | 0.00 | 0.00 | 40 | 1010.4 |
| 20260506012508 | 23 | 0 | 1.6 | 11.3 | 0.00 | 0.00 | 0.00 | 39 | 1010.3 |
| 20260506012012 | 23 | 0 | 0.0 | 12.9 | 0.00 | 0.00 | 0.00 | 38 | 1010.2 |
| 20260506011558 | 23 | 300 | 1.6 | 12.9 | 0.00 | 0.00 | 0.00 | 38 | 1010.2 |
| 20260506011011 | 23 | 0 | 1.6 | 12.9 | 0.00 | 0.00 | 0.00 | 37 | 1010.1 |
| 20260506010513 | 23 | 134 | 3.2 | 12.9 | 0.00 | 0.00 | 0.00 | 36 | 1010.0 |
| 20260506010030 | 24 | 302 | 0.0 | 9.7 | 0.00 | 0.00 | 0.00 | 35 | 1010.0 |
| 20260506005511 | 24 | 109 | 1.6 | 9.7 | 0.00 | 0.00 | 0.00 | 35 | 1009.8 |
| 20260506005009 | 24 | 0 | 1.6 | 6.4 | 0.00 | 0.00 | 0.00 | 35 | 1009.7 |
| 20260506004527 | 24 | 325 | 1.6 | 14.5 | 0.00 | 0.00 | 0.00 | 35 | 1009.6 |
| 20260506004010 | 24 | 43 | 1.6 | 14.5 | 0.00 | 0.00 | 0.00 | 34 | 1009.5 |
| 20260506003508 | 24 | 0 | 1.6 | 8.0 | 0.00 | 0.00 | 0.00 | 33 | 1009.5 |
| 20260506003028 | 24 | 131 | 1.6 | 8.0 | 0.00 | 0.00 | 0.00 | 33 | 1009.5 |
| 20260506002514 | 25 | 190 | 1.6 | 11.3 | 0.00 | 0.00 | 0.00 | 32 | 1009.5 |
| 20260506002013 | 25 | 0 | 1.6 | 11.3 | 0.00 | 0.00 | 0.00 | 32 | 1009.4 |
| 20260506001528 | 25 | 84 | 3.2 | 11.3 | 0.00 | 0.00 | 0.00 | 32 | 1009.4 |
| 20260506001008 | 25 | 218 | 1.6 | 9.7 | 0.00 | 0.00 | 0.00 | 32 | 1009.4 |
| 20260506000516 | 25 | 15 | 1.6 | 14.5 | 0.00 | 0.00 | 0.00 | 32 | 1009.4 |
| 20260506000045 | 25 | 239 | 3.2 | 14.5 | 0.00 | 0.00 | 0.00 | 32 | 1009.3 |
| 20260505235510 | 25 | 122 | 1.6 | 14.5 | 0.00 | 0.00 | 0.00 | 32 | 1009.3 |
| 20260505235008 | 25 | 163 | 3.2 | 14.5 | 0.00 | 0.00 | 0.00 | 31 | 1009.3 |
| 20260505234540 | 25 | 282 | 3.2 | 14.5 | 0.00 | 0.00 | 0.00 | 31 | 1009.2 |
| 20260505234009 | 25 | 122 | 3.2 | 14.5 | 0.00 | 0.00 | 0.00 | 30 | 1009.3 |
| 20260505233510 | 25 | 291 | 0.0 | 11.3 | 0.00 | 0.00 | 0.00 | 31 | 1009.2 |
| 20260505233028 | 26 | 0 | 1.6 | 11.3 | 0.00 | 0.00 | 0.00 | 30 | 1009.2 |
| 20260505232513 | 26 | 94 | 3.2 | 11.3 | 0.00 | 0.00 | 0.00 | 30 | 1009.2 |
| 20260505232009 | 26 | 302 | 0.0 | 11.3 | 0.00 | 0.00 | 0.00 | 29 | 1009.3 |
| 20260505231528 | 26 | 159 | 1.6 | 14.5 | 0.00 | 0.00 | 0.00 | 29 | 1009.3 |
| 20260505231008 | 26 | 303 | 1.6 | 16.1 | 0.00 | 0.00 | 0.00 | 28 | 1009.2 |
| 20260505230509 | 26 | 310 | 4.8 | 22.5 | 0.00 | 0.00 | 0.00 | 28 | 1009.3 |
| 20260505230049 | 26 | 65 | 4.8 | 22.5 | 0.00 | 0.00 | 0.00 | 28 | 1009.3 |
| 20260505225515 | 26 | 144 | 3.2 | 17.7 | 0.00 | 0.00 | 0.00 | 28 | 1009.3 |
| 20260505225009 | 26 | 63 | 6.4 | 22.5 | 0.00 | 0.00 | 0.00 | 27 | 1009.2 |
| 20260505224538 | 26 | 155 | 4.8 | 22.5 | 0.00 | 0.00 | 0.00 | 27 | 1009.2 |
| 20260505224008 | 26 | 63 | 1.6 | 20.9 | 0.00 | 0.00 | 0.00 | 27 | 1009.4 |
| 20260505223511 | 26 | 245 | 3.2 | 20.9 | 0.00 | 0.00 | 0.00 | 27 | 1009.3 |
| 20260505223027 | 26 | 203 | 3.2 | 16.1 | 0.00 | 0.00 | 0.00 | 28 | 1009.2 |
| 20260505222512 | 26 | 125 | 1.6 | 16.1 | 0.00 | 0.00 | 0.00 | 28 | 1009.3 |
| 20260505222012 | 26 | 228 | 4.8 | 16.1 | 0.00 | 0.00 | 0.00 | 28 | 1009.4 |
| 20260505221528 | 27 | 246 | 3.2 | 17.7 | 0.00 | 0.00 | 0.00 | 28 | 1009.3 |
| 20260505221010 | 27 | 84 | 4.8 | 17.7 | 0.00 | 0.00 | 0.00 | 27 | 1009.2 |
| 20260505220512 | 27 | 236 | 4.8 | 16.1 | 0.00 | 0.00 | 0.00 | 28 | 1009.2 |
| 20260505220031 | 27 | 246 | 4.8 | 22.5 | 0.00 | 0.00 | 0.00 | 28 | 1009.3 |
| 20260505215509 | 27 | 122 | 1.6 | 22.5 | 0.00 | 0.00 | 0.00 | 29 | 1009.3 |
| 20260505215008 | 27 | 258 | 3.2 | 16.1 | 0.00 | 0.00 | 0.00 | 27 | 1009.2 |
| 20260505214531 | 27 | 240 | 3.2 | 14.5 | 0.00 | 0.00 | 0.00 | 28 | 1009.3 |
| 20260505214011 | 27 | 57 | 4.8 | 16.1 | 0.00 | 0.00 | 0.00 | 27 | 1009.2 |
| 20260505213511 | 27 | 240 | 4.8 | 16.1 | 0.00 | 0.00 | 0.00 | 27 | 1009.3 |
| 20260505213030 | 27 | 93 | 4.8 | 17.7 | 0.00 | 0.00 | 0.00 | 27 | 1009.1 |
| 20260505212510 | 27 | 248 | 4.8 | 25.7 | 0.00 | 0.00 | 0.00 | 28 | 1009.1 |
| 20260505212015 | 27 | 283 | 3.2 | 25.7 | 0.00 | 0.00 | 0.00 | 28 | 1009.1 |
| 20260505211532 | 27 | 0 | 6.4 | 19.3 | 0.00 | 0.00 | 0.00 | 28 | 1009.1 |
| 20260505211011 | 27 | 5 | 3.2 | 20.9 | 0.00 | 0.00 | 0.00 | 30 | 1009.0 |
| 20260505210511 | 27 | 149 | 8.0 | 20.9 | 0.00 | 0.00 | 0.00 | 29 | 1009.1 |
| 20260505210031 | 27 | 197 | 6.4 | 20.9 | 0.00 | 0.00 | 0.00 | 28 | 1009.1 |
| 20260505205510 | 27 | 212 | 4.8 | 19.3 | 0.00 | 0.00 | 0.00 | 29 | 1009.0 |
| 20260505205009 | 27 | 248 | 3.2 | 22.5 | 0.00 | 0.00 | 0.00 | 29 | 1009.1 |
| 20260505204537 | 27 | 164 | 6.4 | 22.5 | 0.00 | 0.00 | 0.00 | 29 | 1008.9 |
| 20260505204008 | 27 | 227 | 4.8 | 22.5 | 0.00 | 0.00 | 0.00 | 30 | 1008.9 |
| 20260505203510 | 28 | 222 | 8.0 | 22.5 | 0.00 | 0.00 | 0.00 | 28 | 1009.0 |
| 20260505203034 | 28 | 131 | 4.8 | 16.1 | 0.00 | 0.00 | 0.00 | 29 | 1008.9 |
| 20260505202511 | 28 | 321 | 6.4 | 17.7 | 0.00 | 0.00 | 0.00 | 28 | 1008.9 |
| 20260505202010 | 28 | 5 | 4.8 | 17.7 | 0.00 | 0.00 | 0.00 | 28 | 1009.0 |
| 20260505201532 | 28 | 231 | 6.4 | 19.3 | 0.00 | 0.00 | 0.00 | 28 | 1009.0 |
| 20260505201012 | 28 | 15 | 3.2 | 19.3 | 0.00 | 0.00 | 0.00 | 29 | 1009.0 |
| 20260505200511 | 28 | 296 | 4.8 | 22.5 | 0.00 | 0.00 | 0.00 | 30 | 1009.0 |
| 20260505200028 | 28 | 92 | 4.8 | 22.5 | 0.00 | 0.00 | 0.00 | 29 | 1009.0 |
| 20260505195508 | 28 | 228 | 4.8 | 20.9 | 0.00 | 0.00 | 0.00 | 29 | 1009.0 |
| 20260505195010 | 28 | 239 | 4.8 | 20.9 | 0.00 | 0.00 | 0.00 | 29 | 1009.0 |
| 20260505194534 | 28 | 231 | 6.4 | 22.5 | 0.00 | 0.00 | 0.00 | 29 | 1009.2 |
| 20260505194011 | 28 | 312 | 4.8 | 22.5 | 0.00 | 0.00 | 0.00 | 29 | 1009.1 |
| 20260505193509 | 28 | 249 | 6.4 | 16.1 | 0.00 | 0.00 | 0.00 | 29 | 1009.2 |
| 20260505193029 | 28 | 80 | 4.8 | 20.9 | 0.00 | 0.00 | 0.00 | 29 | 1009.1 |
| 20260505192512 | 28 | 82 | 6.4 | 20.9 | 0.00 | 0.00 | 0.00 | 28 | 1009.2 |
| 20260505192012 | 28 | 59 | 4.8 | 19.3 | 0.00 | 0.00 | 0.00 | 29 | 1009.4 |
| 20260505191530 | 28 | 119 | 4.8 | 22.5 | 0.00 | 0.00 | 0.00 | 27 | 1009.3 |
| 20260505191012 | 28 | 242 | 6.4 | 22.5 | 0.00 | 0.00 | 0.00 | 27 | 1009.6 |
| 20260505190511 | 28 | 19 | 3.2 | 14.5 | 0.00 | 0.00 | 0.00 | 32 | 1009.7 |
| 20260505190036 | 28 | 115 | 4.8 | 14.5 | 0.00 | 0.00 | 0.00 | 30 | 1009.8 |
| 20260505185513 | 28 | 105 | 4.8 | 29.0 | 0.00 | 0.00 | 0.00 | 29 | 1009.8 |
| 20260505185012 | 28 | 88 | 3.2 | 29.0 | 0.00 | 0.00 | 0.00 | 32 | 1010.0 |
| 20260505184534 | 28 | 305 | 4.8 | 29.0 | 0.00 | 0.00 | 0.00 | 31 | 1010.2 |
| 20260505184011 | 28 | 292 | 4.8 | 17.7 | 0.00 | 0.00 | 0.00 | 30 | 1010.3 |
| 20260505183509 | 28 | 253 | 9.7 | 17.7 | 0.00 | 0.00 | 0.00 | 28 | 1010.3 |
| 20260505183028 | 28 | 75 | 3.2 | 16.1 | 0.00 | 0.00 | 0.00 | 31 | 1010.6 |
| 20260505182509 | 28 | 0 | 4.8 | 16.1 | 0.00 | 0.00 | 0.00 | 29 | 1010.5 |
| 20260505182012 | 28 | 292 | 4.8 | 14.5 | 0.00 | 0.00 | 0.00 | 31 | 1010.5 |
| 20260505181534 | 28 | 275 | 3.2 | 24.1 | 0.00 | 0.00 | 0.00 | 31 | 1010.7 |
| 20260505181015 | 27 | 104 | 4.8 | 24.1 | 0.00 | 0.00 | 0.00 | 31 | 1010.7 |
| 20260505180511 | 27 | 185 | 4.8 | 16.1 | 0.00 | 0.00 | 0.00 | 30 | 1010.7 |
| 20260505180038 | 27 | 0 | 3.2 | 19.3 | 0.00 | 0.00 | 0.00 | 33 | 1010.8 |
| 20260505175513 | 28 | 97 | 4.8 | 19.3 | 0.00 | 0.00 | 0.00 | 33 | 1010.9 |
| 20260505175008 | 28 | 281 | 3.2 | 17.7 | 0.00 | 0.00 | 0.00 | 31 | 1010.9 |
| 20260505174532 | 28 | 116 | 3.2 | 14.5 | 0.00 | 0.00 | 0.00 | 34 | 1010.9 |
| 20260505174009 | 27 | 269 | 1.6 | 11.3 | 0.00 | 0.00 | 0.00 | 33 | 1010.8 |
| 20260505173511 | 27 | 266 | 1.6 | 16.1 | 0.00 | 0.00 | 0.00 | 33 | 1010.9 |
| 20260505173030 | 27 | 118 | 4.8 | 16.1 | 0.00 | 0.00 | 0.00 | 36 | 1010.9 |
| 20260505172509 | 27 | 216 | 1.6 | 16.1 | 0.00 | 0.00 | 0.00 | 36 | 1011.0 |
| 20260505172012 | 27 | 98 | 3.2 | 12.9 | 0.00 | 0.00 | 0.00 | 37 | 1011.0 |
| 20260505171527 | 27 | 139 | 0.0 | 16.1 | 0.00 | 0.00 | 0.00 | 38 | 1011.1 |
| 20260505171011 | 26 | 101 | 3.2 | 16.1 | 0.00 | 0.00 | 0.00 | 39 | 1011.2 |
| 20260505170508 | 26 | 207 | 3.2 | 11.3 | 0.00 | 0.00 | 0.00 | 39 | 1011.2 |
| 20260505170029 | 26 | 232 | 3.2 | 14.5 | 0.00 | 0.00 | 0.00 | 42 | 1011.3 |
| 20260505165511 | 26 | 105 | 3.2 | 14.5 | 0.00 | 0.00 | 0.00 | 39 | 1011.4 |
| 20260505165011 | 26 | 109 | 3.2 | 12.9 | 0.00 | 0.00 | 0.00 | 41 | 1011.5 |
| 20260505164528 | 26 | 246 | 3.2 | 16.1 | 0.00 | 0.00 | 0.00 | 41 | 1011.5 |
| 20260505164011 | 26 | 315 | 3.2 | 16.1 | 0.00 | 0.00 | 0.00 | 41 | 1011.6 |
| 20260505163519 | 26 | 185 | 3.2 | 12.9 | 0.00 | 0.00 | 0.00 | 40 | 1011.8 |
| 20260505163029 | 26 | 100 | 3.2 | 12.9 | 0.00 | 0.00 | 0.00 | 40 | 1011.8 |
| 20260505162508 | 26 | 316 | 3.2 | 14.5 | 0.00 | 0.00 | 0.00 | 39 | 1011.9 |
| 20260505162015 | 26 | 301 | 1.6 | 14.5 | 0.00 | 0.00 | 0.00 | 41 | 1012.0 |
| 20260505161528 | 26 | 108 | 1.6 | 16.1 | 0.00 | 0.00 | 0.00 | 43 | 1012.0 |
| 20260505161011 | 25 | 251 | 1.6 | 16.1 | 0.00 | 0.00 | 0.00 | 42 | 1012.1 |
| 20260505160510 | 25 | 272 | 4.8 | 16.1 | 0.00 | 0.00 | 0.00 | 40 | 1012.1 |
| 20260505153029 | 25 | 119 | 3.2 | 11.3 | 0.00 | 0.00 | 0.00 | 43 | 1012.3 |
| 20260505152511 | 25 | 119 | 1.6 | 11.3 | 0.00 | 0.00 | 0.00 | 44 | 1012.3 |
| 20260505152015 | 25 | 202 | 3.2 | 12.9 | 0.00 | 0.00 | 0.00 | 41 | 1012.3 |
| 20260505151533 | 24 | 0 | 1.6 | 14.5 | 0.00 | 0.00 | 0.00 | 45 | 1012.2 |
| 20260505151009 | 24 | 252 | 1.6 | 14.5 | 0.00 | 0.00 | 0.00 | 45 | 1012.2 |
| 20260505150510 | 25 | 277 | 3.2 | 14.5 | 0.00 | 0.00 | 0.00 | 42 | 1012.2 |
| 20260505140509 | 22 | 119 | 1.6 | 12.9 | 0.00 | 0.00 | 0.00 | 46 | 1012.4 |
| 20260505125015 | 19 | 122 | 0.0 | 6.4 | 0.00 | 0.00 | 0.00 | 52 | 1012.9 |
| 20260505124542 | 19 | 0 | 1.6 | 9.7 | 0.00 | 0.00 | 0.00 | 53 | 1012.9 |
| 20260505124012 | 19 | 0 | 1.6 | 9.7 | 0.00 | 0.00 | 0.00 | 53 | 1012.8 |
| 20260505123513 | 19 | 124 | 0.0 | 4.8 | 0.00 | 0.00 | 0.00 | 54 | 1012.9 |
| 20260505123027 | 18 | 263 | 0.0 | 6.4 | 0.00 | 0.00 | 0.00 | 56 | 1012.8 |
| 20260505122511 | 18 | 299 | 0.0 | 6.4 | 0.00 | 0.00 | 0.00 | 56 | 1012.8 |
| 20260505122014 | 18 | 236 | 1.6 | 6.4 | 0.00 | 0.00 | 0.00 | 56 | 1012.8 |
| 20260505121546 | 17 | 258 | 0.0 | 6.4 | 0.00 | 0.00 | 0.00 | 57 | 1012.6 |
| 20260505121008 | 17 | 127 | 0.0 | 6.4 | 0.00 | 0.00 | 0.00 | 57 | 1012.6 |
| 20260505120508 | 17 | 137 | 1.6 | 6.4 | 0.00 | 0.00 | 0.00 | 58 | 1012.5 |
| 20260505120030 | 17 | 0 | 0.0 | 9.7 | 0.00 | 0.00 | 0.00 | 58 | 1012.6 |
| 20260505115508 | 16 | 229 | 1.6 | 9.7 | 0.00 | 0.00 | 0.00 | 58 | 1012.4 |
| 20260505115010 | 16 | 279 | 1.6 | 9.7 | 0.00 | 0.00 | 0.00 | 59 | 1012.4 |
| 20260505114528 | 16 | 0 | 0.0 | 6.4 | 0.00 | 0.00 | 0.00 | 60 | 1012.4 |
| 20260505114011 | 16 | 0 | 0.0 | 6.4 | 0.00 | 0.00 | 0.00 | 59 | 1012.3 |
| 20260505113509 | 16 | 181 | 1.6 | 6.4 | 0.00 | 0.00 | 0.00 | 59 | 1012.2 |
| 20260505113032 | 16 | 0 | 0.0 | 6.4 | 0.00 | 0.00 | 0.00 | 61 | 1012.1 |
| 20260505112510 | 16 | 284 | 0.0 | 6.4 | 0.00 | 0.00 | 0.00 | 61 | 1012.2 |
| 20260505112011 | 16 | 0 | 0.0 | 6.4 | 0.00 | 0.00 | 0.00 | 60 | 1012.1 |
| 20260505111535 | 16 | 0 | 0.0 | 4.8 | 0.00 | 0.00 | 0.00 | 60 | 1012.0 |
| 20260505111010 | 16 | 216 | 0.0 | 3.2 | 0.00 | 0.00 | 0.00 | 61 | 1011.9 |
| 20260505110510 | 16 | 0 | 0.0 | 6.4 | 0.00 | 0.00 | 0.00 | 62 | 1011.8 |
| 20260505102011 | 15 | 101 | 1.6 | 8.0 | 0.00 | 0.00 | 0.00 | 62 | 1011.4 |
| 20260505101535 | 15 | 0 | 1.6 | 6.4 | 0.00 | 0.00 | 0.00 | 63 | 1011.4 |
| 20260505101008 | 15 | 0 | 0.0 | 9.7 | 0.00 | 0.00 | 0.00 | 63 | 1011.4 |
| 20260505100511 | 15 | 0 | 0.0 | 9.7 | 0.00 | 0.00 | 0.00 | 63 | 1011.4 |
| 20260505100038 | 15 | 211 | 0.0 | 6.4 | 0.00 | 0.00 | 0.00 | 64 | 1011.3 |
| 20260505095510 | 15 | 0 | 0.0 | 1.6 | 0.00 | 0.00 | 0.00 | 64 | 1011.2 |
| 20260505095015 | 15 | 0 | 0.0 | 3.2 | 0.00 | 0.00 | 0.00 | 64 | 1011.3 |
| 20260505094528 | 14 | 0 | 0.0 | 3.2 | 0.00 | 0.00 | 0.00 | 64 | 1011.3 |
| 20260505094009 | 14 | 0 | 0.0 | 3.2 | 0.00 | 0.00 | 0.00 | 64 | 1011.3 |
| 20260505093511 | 15 | 0 | 0.0 | 1.6 | 0.00 | 0.00 | 0.00 | 65 | 1011.2 |
| 20260505093031 | 15 | 0 | 0.0 | 3.2 | 0.00 | 0.00 | 0.00 | 64 | 1011.2 |
| 20260505092511 | 15 | 0 | 0.0 | 3.2 | 0.00 | 0.00 | 0.00 | 64 | 1011.2 |
| 20260505092011 | 15 | 0 | 0.0 | 3.2 | 0.00 | 0.00 | 0.00 | 64 | 1011.1 |
| 20260505091534 | 15 | 0 | 0.0 | 6.4 | 0.00 | 0.00 | 0.00 | 65 | 1010.9 |
| 20260505091010 | 15 | 245 | 0.0 | 6.4 | 0.00 | 0.00 | 0.00 | 65 | 1010.9 |
| 20260505090511 | 15 | 0 | 0.0 | 4.8 | 0.00 | 0.00 | 0.00 | 65 | 1010.9 |
| 20260505090027 | 15 | 0 | 0.0 | 6.4 | 0.00 | 0.00 | 0.00 | 65 | 1011.0 |
| 20260505085511 | 15 | 0 | 0.0 | 12.9 | 0.00 | 0.00 | 0.00 | 65 | 1011.0 |
| 20260505085013 | 15 | 217 | 0.0 | 12.9 | 0.00 | 0.00 | 0.00 | 65 | 1011.0 |
| 20260505084528 | 15 | 244 | 1.6 | 12.9 | 0.00 | 0.00 | 0.00 | 66 | 1011.0 |
| 20260505084010 | 15 | 0 | 0.0 | 4.8 | 0.00 | 0.00 | 0.00 | 67 | 1011.1 |
| 20260505083514 | 15 | 0 | 0.0 | 12.9 | 0.00 | 0.00 | 0.00 | 67 | 1011.0 |
| 20260505083039 | 15 | 0 | 0.0 | 12.9 | 0.00 | 0.00 | 0.00 | 67 | 1011.1 |
| 20260505082510 | 15 | 0 | 0.0 | 3.2 | 0.00 | 0.00 | 0.00 | 67 | 1011.1 |
| 20260505082012 | 15 | 0 | 0.0 | 3.2 | 0.00 | 0.00 | 0.00 | 66 | 1011.1 |
| 20260505081532 | 15 | 0 | 0.0 | 1.6 | 0.00 | 0.00 | 0.00 | 66 | 1011.1 |
| 20260505081010 | 15 | 0 | 0.0 | 0.0 | 0.00 | 0.00 | 0.00 | 65 | 1011.0 |
| 20260505080510 | 15 | 0 | 0.0 | 9.7 | 0.00 | 0.00 | 0.00 | 65 | 1011.0 |
| 20260505080041 | 15 | 0 | 0.0 | 9.7 | 0.00 | 0.00 | 0.00 | 65 | 1011.0 |
| 20260505075511 | 15 | 108 | 0.0 | 9.7 | 0.00 | 0.00 | 0.00 | 65 | 1011.0 |
| 20260505075011 | 15 | 0 | 0.0 | 4.8 | 0.00 | 0.00 | 0.00 | 65 | 1011.0 |
| 20260505074529 | 15 | 127 | 0.0 | 4.8 | 0.00 | 0.00 | 0.00 | 66 | 1011.0 |
| 20260505074011 | 15 | 115 | 0.0 | 6.4 | 0.00 | 0.00 | 0.00 | 66 | 1011.1 |
| 20260505073511 | 15 | 0 | 0.0 | 6.4 | 0.00 | 0.00 | 0.00 | 67 | 1010.9 |
| 20260505073027 | 15 | 109 | 0.0 | 6.4 | 0.00 | 0.00 | 0.00 | 67 | 1010.9 |
| 20260505072514 | 14 | 0 | 1.6 | 6.4 | 0.00 | 0.00 | 0.00 | 67 | 1010.9 |
| 20260505072009 | 14 | 127 | 0.0 | 1.6 | 0.00 | 0.00 | 0.00 | 68 | 1010.9 |
| 20260505071538 | 15 | 0 | 0.0 | 1.6 | 0.00 | 0.00 | 0.00 | 68 | 1010.8 |
| 20260505071013 | 15 | 0 | 0.0 | 1.6 | 0.00 | 0.00 | 0.00 | 67 | 1010.9 |
| 20260505070511 | 15 | 0 | 0.0 | 1.6 | 0.00 | 0.00 | 0.00 | 68 | 1010.8 |
| 20260505070030 | 14 | 0 | 0.0 | 1.6 | 0.00 | 0.00 | 0.00 | 67 | 1010.9 |
| 20260505065511 | 14 | 0 | 0.0 | 0.0 | 0.00 | 0.00 | 0.00 | 68 | 1010.8 |
| 20260505065015 | 14 | 0 | 0.0 | 0.0 | 0.00 | 0.00 | 0.00 | 68 | 1010.8 |
| 20260505064527 | 15 | 0 | 0.0 | 0.0 | 0.00 | 0.00 | 0.00 | 67 | 1010.7 |
| 20260505064013 | 15 | 0 | 0.0 | 0.0 | 0.00 | 0.00 | 0.00 | 68 | 1010.8 |
| 20260505063511 | 15 | 0 | 0.0 | 0.0 | 0.00 | 0.00 | 0.00 | 67 | 1010.8 |
| 20260505063042 | 15 | 0 | 0.0 | 3.2 | 0.00 | 0.00 | 0.00 | 67 | 1010.7 |
| 20260505062511 | 15 | 0 | 0.0 | 3.2 | 0.00 | 0.00 | 0.00 | 67 | 1010.7 |
| 20260505062017 | 15 | 0 | 0.0 | 0.0 | 0.00 | 0.00 | 0.00 | 66 | 1010.7 |
| 20260505061534 | 15 | 0 | 0.0 | 1.6 | 0.00 | 0.00 | 0.00 | 66 | 1010.8 |
| 20260505061008 | 15 | 0 | 0.0 | 1.6 | 0.00 | 0.00 | 0.00 | 66 | 1010.8 |
| 20260505060513 | 15 | 0 | 0.0 | 0.0 | 0.00 | 0.00 | 0.00 | 66 | 1010.7 |
| 20260505060029 | 15 | 0 | 0.0 | 1.6 | 0.00 | 0.00 | 0.00 | 66 | 1010.9 |
| 20260505055512 | 15 | 0 | 0.0 | 1.6 | 0.00 | 0.00 | 0.00 | 67 | 1010.9 |
| 20260505055012 | 15 | 0 | 0.0 | 1.6 | 0.00 | 0.00 | 0.00 | 66 | 1010.9 |
| 20260505054541 | 15 | 0 | 0.0 | 0.0 | 0.00 | 0.00 | 0.00 | 66 | 1011.0 |
| 20260505054015 | 15 | 0 | 0.0 | 0.0 | 0.00 | 0.00 | 0.00 | 65 | 1010.8 |
| 20260505053515 | 15 | 0 | 0.0 | 0.0 | 0.00 | 0.00 | 0.00 | 64 | 1010.8 |
| 20260505053028 | 15 | 0 | 0.0 | 0.0 | 0.00 | 0.00 | 0.00 | 64 | 1010.8 |
| 20260505052511 | 15 | 0 | 0.0 | 0.0 | 0.00 | 0.00 | 0.00 | 63 | 1010.9 |
| 20260505052011 | 16 | 0 | 0.0 | 0.0 | 0.00 | 0.00 | 0.00 | 63 | 1010.9 |
| 20260505051538 | 16 | 0 | 0.0 | 0.0 | 0.00 | 0.00 | 0.00 | 63 | 1011.0 |
| 20260505051009 | 16 | 0 | 0.0 | 0.0 | 0.00 | 0.00 | 0.00 | 63 | 1011.0 |
| 20260505050513 | 16 | 0 | 0.0 | 0.0 | 0.00 | 0.00 | 0.00 | 62 | 1011.1 |
| 20260505041549 | 17 | 0 | 0.0 | 3.2 | 0.00 | 0.00 | 0.00 | 58 | 1011.1 |
| 20260505041011 | 17 | 0 | 0.0 | 3.2 | 0.00 | 0.00 | 0.00 | 57 | 1011.1 |
| 20260505040509 | 17 | 0 | 0.0 | 1.6 | 0.00 | 0.00 | 0.00 | 57 | 1011.0 |
| 20260505040030 | 17 | 0 | 0.0 | 1.6 | 0.00 | 0.00 | 0.00 | 56 | 1010.9 |
| 20260505035508 | 17 | 0 | 0.0 | 0.0 | 0.00 | 0.00 | 0.00 | 56 | 1010.9 |
| 20260505035014 | 17 | 0 | 0.0 | 1.6 | 0.00 | 0.00 | 0.00 | 56 | 1011.0 |
| 20260505034528 | 17 | 0 | 0.0 | 1.6 | 0.00 | 0.00 | 0.00 | 56 | 1010.9 |
| 20260505034007 | 17 | 0 | 0.0 | 1.6 | 0.00 | 0.00 | 0.00 | 55 | 1010.9 |
| 20260505033509 | 17 | 0 | 0.0 | 1.6 | 0.00 | 0.00 | 0.00 | 55 | 1010.9 |
| 20260505033028 | 17 | 0 | 0.0 | 0.0 | 0.00 | 0.00 | 0.00 | 55 | 1011.0 |
| 20260505032517 | 17 | 0 | 0.0 | 0.0 | 0.00 | 0.00 | 0.00 | 54 | 1011.0 |
| 20260505032008 | 17 | 0 | 0.0 | 0.0 | 0.00 | 0.00 | 0.00 | 54 | 1011.0 |
| 20260505031534 | 18 | 0 | 0.0 | 1.6 | 0.00 | 0.00 | 0.00 | 53 | 1011.0 |
| 20260505031008 | 18 | 0 | 0.0 | 1.6 | 0.00 | 0.00 | 0.00 | 53 | 1011.0 |
| 20260505030508 | 18 | 0 | 0.0 | 3.2 | 0.00 | 0.00 | 0.00 | 53 | 1010.9 |
| 20260505030028 | 18 | 0 | 0.0 | 3.2 | 0.00 | 0.00 | 0.00 | 52 | 1010.9 |
| 20260505025514 | 18 | 0 | 0.0 | 1.6 | 0.00 | 0.00 | 0.00 | 52 | 1010.8 |
| 20260505025009 | 18 | 0 | 0.0 | 1.6 | 0.00 | 0.00 | 0.00 | 52 | 1010.8 |
| 20260505024527 | 18 | 0 | 0.0 | 1.6 | 0.00 | 0.00 | 0.00 | 51 | 1010.8 |
| 20260505024010 | 18 | 0 | 0.0 | 1.6 | 0.00 | 0.00 | 0.00 | 51 | 1010.8 |
| 20260505023511 | 18 | 0 | 0.0 | 4.8 | 0.00 | 0.00 | 0.00 | 51 | 1010.9 |
| 20260505023031 | 18 | 0 | 0.0 | 6.4 | 0.00 | 0.00 | 0.00 | 51 | 1010.8 |
| 20260505022511 | 18 | 0 | 0.0 | 6.4 | 0.00 | 0.00 | 0.00 | 50 | 1010.8 |
| 20260505022014 | 18 | 0 | 0.0 | 0.0 | 0.00 | 0.00 | 0.00 | 50 | 1010.8 |
| 20260505021530 | 18 | 0 | 0.0 | 0.0 | 0.00 | 0.00 | 0.00 | 50 | 1010.8 |
| 20260505021010 | 18 | 0 | 0.0 | 1.6 | 0.00 | 0.00 | 0.00 | 49 | 1010.7 |
| 20260505020509 | 18 | 0 | 0.0 | 1.6 | 0.00 | 0.00 | 0.00 | 49 | 1010.6 |
| 20260505020038 | 19 | 0 | 0.0 | 1.6 | 0.00 | 0.00 | 0.00 | 49 | 1010.5 |